Location: Asheville, NC
(35.6000°N, 82.5500°W)
Time: 00:11:07
(UTC-04:00)

Vanguard 3 - Pass Details

Date: 14 March 2018
Orbit: 508 x 3264 km, 33.3° (Epoch: 22 June)

Event Time Altitude Azimuth Distance (km) Brightness Sun altitude
Rises 06:16:29 0° 198° (SSW) 6,593 11.5 -18.2°
Reaches altitude 10° 06:21:49 10° 187° (S) 5,870 11.3 -17.2°
Maximum altitude 06:36:06 27° 138° (SE) 4,901 11.5 -14.3°
Drops below altitude 10° 06:50:09 10° 90° (E) 5,848 13.1 -11.4°
Sets 06:55:18 0° 80° (E) 6,574 14.0 -10.4°
